Location: Banff
(51.1667°N, 115.5667°W)
Time: 10:23:21
(UTC+00:00)

Courier 1B Rocket - Pass Details

Date: 30 November 2020
Orbit: 920 x 1202 km, 28.2° (Epoch: 17 January)

Event Time Altitude Azimuth Distance (km) Brightness Sun altitude
Rises 15:30:55 0° 235° (SW) 4,086 8.1 0.1°
Reaches altitude 10° 15:37:09 10° 198° (SSW) 3,083 7.9 0.9°
Maximum altitude 15:38:20 10° 189° (S) 3,042 8.0 1.0°
Drops below altitude 10° 15:39:31 10° 180° (S) 3,060 8.2 1.2°
Sets 15:45:33 0° 143° (SE) 3,947 10.2 1.9°
